Station CHAO3 - 9432780 - Charleston, OR Image indicating link to RSS feed of recent meteorological observations for station CHAO3


Conditions at CHAO3 as of
(2:36 pm PDT)
2136 GMT on 07/13/2024:
     

Click on the graph icon in the table below to see a time series plot of the last five days of that observation.

5-day plot - Wind Direction Wind Direction (WDIR): N ( 10 deg true )
5-day plot - Wind Speed Wind Speed (WSPD): 1.0 kts
5-day plot - Wind Gust Wind Gust (GST): 5.1 kts
5-day plot - Atmospheric Pressure Atmospheric Pressure (PRES):30.01 in
5-day plot - Water Temperature Water Temperature (WTMP): 53.6 °F
5-day plot - Wind Speed at 10 Meters Wind Speed at 10 meters (WSPD10M): 1.9 kts
5-day plot - Wind Speed at 20 Meters Wind Speed at 20 meters (WSPD20M): 1.9 kts
5-day plot -  Wind Speed, Wind Gust and Atmospheric Pressure Combined plot of Wind Speed, Gust, and Air Pressure
NOS Water Level Observation Network Water Level
Previous observations
TIME
(PDT)
5-day plot - Wind Direction
WDIR
 
5-day plot - Wind Speed
WSPD
kts
5-day plot - Wind Gust
GST
kts
5-day plot - Wave Height
WVHT
ft
5-day plot - Dominant Wave Period
DPD
sec
5-day plot - Average Wave Period
APD
sec
5-day plot - Mean Wave Direction
MWD
 
5-day plot - Atmospheric Pressure
PRES
in
5-day plot - Pressure Tendency
PTDY
in
5-day plot - Air Temperature
ATMP
°F
5-day plot - Water Temperature
WTMP
°F
5-day plot - Dew Point
DEWP
°F
5-day plot - Salinity
SAL
psu
5-day plot - Visibility
VIS
nmi
5-day plot - Tide (above MLLW)
TIDE
ft
2024-07-13 02:30 pm NW 2.9 5.1----30.01-- 53.4----
2024-07-13 02:24 pm N 2.9 5.1----30.01-- 53.4----
2024-07-13 02:18 pmNNW 2.9 4.1----30.01-- 53.6----
2024-07-13 02:12 pm N 1.9 5.1----30.01-- 53.8----
2024-07-13 02:06 pm N 1.9 5.1----30.01-- 54.1----
2024-07-13 02:00 pm N 1.9 4.1----30.01+0.00- 54.3----
2024-07-13 01:54 pmESE 1.9 5.1----30.01-- 55.0----
2024-07-13 01:48 pmENE 1.0 4.1----30.01-- 55.2----
2024-07-13 01:42 pmNNE 1.0 4.1----30.01-- 55.2----
2024-07-13 01:36 pmNNW 1.0 5.1----30.01-- 55.2----
2024-07-13 01:30 pmENE 1.0 5.1----30.01-- 55.2----
2024-07-13 01:24 pm NE 1.9 5.1----30.01-- 55.8----
2024-07-13 01:18 pmNNW 1.9 6.0----30.01-- 55.9----
2024-07-13 01:12 pm W 1.0 6.0----30.01-- 56.1----
2024-07-13 01:06 pmWNW 1.9 5.1----30.01-- 56.3----
2024-07-13 01:00 pmWNW 4.1 7.0----30.01+0.00- 55.9----
2024-07-13 12:54 pmNNW 4.1 7.0----30.01-- 55.8----
2024-07-13 12:48 pm NW 2.9 7.0----30.01-- 55.6----
2024-07-13 12:42 pmWNW 4.1 8.0----30.01-- 55.8----
2024-07-13 12:36 pm NW 2.9 7.0----30.01-- 55.8----
2024-07-13 12:30 pm NW 2.9 6.0----30.01-- 55.8----
2024-07-13 12:24 pmNNW 4.1 7.0----30.01-- 55.9----
2024-07-13 12:18 pm N 2.9 8.0----30.01-- 55.9----
2024-07-13 12:12 pmNNE 5.1 8.9----30.01-- 55.8----
2024-07-13 12:06 pm N 4.1 7.0----30.01-- 55.6----
2024-07-13 12:00 pm N 6.0 9.9----30.01+0.00- 55.6----
2024-07-13 11:54 amNNW 4.1 8.9----30.01-- 55.2----
2024-07-13 11:48 amNNW 2.9 7.0----30.01-- 55.4----
2024-07-13 11:42 am NW 5.1 7.0----30.01-- 55.4----
2024-07-13 11:36 am NW 4.1 6.0----30.01-- 54.9----
2024-07-13 11:30 am NW 5.1 7.0----30.01-- 54.7----
2024-07-13 11:24 am N 4.1 6.0----30.01-- 54.7----
2024-07-13 11:18 amENE 1.9 6.0----30.01-- 54.3----
2024-07-13 11:12 amENE 2.9 6.0----30.01-- 54.1----
2024-07-13 11:06 am N 4.1 5.1----30.01-- 53.8----
2024-07-13 11:00 am N 2.9 7.0----30.01+0.00- 54.0----
2024-07-13 10:54 am N 4.1 7.0----30.01-- 54.0----
2024-07-13 10:48 amNNW 5.1 8.9----30.01-- 53.8----
2024-07-13 10:42 amNNW 5.1 8.9----30.01-- 53.4----
2024-07-13 10:36 am N 2.9 8.9----30.01-- 53.2----
2024-07-13 10:30 amNNE 4.1 8.0----30.01-- 53.1----
2024-07-13 10:24 amNNE 6.0 9.9----30.01-- 53.1----
2024-07-13 10:18 am NE 7.0 15.9----30.01-- 52.9----
2024-07-13 10:12 amNNE 12.0 17.1----30.01-- 52.7----
2024-07-13 10:06 amNNE 15.0 19.0----30.01-- 52.5----
2024-07-13 10:00 amNNE 12.0 18.1----30.01+0.00- 52.5----
2024-07-13 09:54 amNNE 13.0 18.1----30.01-- 52.3----
2024-07-13 09:48 amNNE 6.0 12.0----30.01-- 52.3----
2024-07-13 09:42 amNNE 7.0 13.0----30.01-- 52.3----
2024-07-13 09:36 am N 6.0 11.1----30.01-- 52.2----
2024-07-13 09:30 am N 5.1 8.0----30.01-- 52.0----
2024-07-13 09:24 am N 5.1 8.9----30.01-- 52.0----
2024-07-13 09:18 amNNE 8.9 17.1----30.01-- 52.0----
2024-07-13 09:12 am NE 12.0 17.1----30.02-- 52.0----
2024-07-13 09:06 amNNE 8.9 14.0----30.02-- 51.8----
2024-07-13 09:00 am N 6.0 12.0----30.02+0.01- 51.8----
2024-07-13 08:54 am N 6.0 12.0----30.02-- 51.8----
2024-07-13 08:48 am N 7.0 15.0----30.01-- 51.8----
2024-07-13 08:42 am N 8.9 13.0----30.01-- 51.8----
2024-07-13 08:36 am N 9.9 12.0----30.01-- 51.6----
2024-07-13 08:30 am N 7.0 9.9----30.01-- 51.6----
2024-07-13 08:24 am NW 5.1 7.0----30.00-- 51.8----
2024-07-13 08:18 am W 5.1 6.0----30.01-- 51.8----
2024-07-13 08:12 amNNW 5.1 8.9----30.01-- 51.6----
2024-07-13 08:06 am N 7.0 9.9----30.01-- 51.8----
2024-07-13 08:00 am N 6.0 8.9----30.01+0.00- 51.8----
2024-07-13 07:54 am N 5.1 8.0----30.01-- 51.8----
2024-07-13 07:48 am N 5.1 8.0----30.01-- 51.4----
2024-07-13 07:42 am N 6.0 11.1----30.01-- 51.4----
2024-07-13 07:36 amNNW 6.0 8.9----30.01-- 51.4----
2024-07-13 07:30 amNNW 5.1 6.0----30.01-- 50.9----
2024-07-13 07:24 am N 2.9 6.0----30.01-- 50.9----
2024-07-13 07:18 amNNE 5.1 9.9----30.01-- 51.4----
2024-07-13 07:12 amNNE 7.0 11.1----30.01-- 50.7----
2024-07-13 07:06 amNNE 6.0 9.9----30.01-- 50.9----
2024-07-13 07:00 am NE 8.9 11.1----30.01+0.01- 51.1----
2024-07-13 06:54 am NE 8.9 14.0----30.01-- 50.9----
2024-07-13 06:48 am NE 8.9 14.0----30.01-- 50.7----
2024-07-13 06:42 amNNE 12.0 15.9----30.01-- 50.9----
2024-07-13 06:36 amNNE 9.9 15.9----30.01-------
2024-07-13 06:30 am NE 9.9 17.1----30.01-------
2024-07-13 06:24 amNNE 14.0 18.1----30.01-------
2024-07-13 06:18 amNNE 12.0 19.0----30.01-------
2024-07-13 06:12 amNNE 12.0 15.0----30.01-------
2024-07-13 06:06 amNNE 12.0 15.9----30.00-------
2024-07-13 06:00 amNNE 9.9 15.0----30.00+0.00------
2024-07-13 05:54 amNNE 9.9 13.0----30.00-------
2024-07-13 05:48 am N 6.0 8.9----30.00-------
2024-07-13 05:42 amNNE 4.1 7.0----30.00-------
2024-07-13 05:36 amNNE 4.1 8.0----30.00-- 49.6----
2024-07-13 05:30 amNNE 5.1 8.0----30.00-- 49.8----
2024-07-13 05:24 amNNE 6.0 9.9----30.00-- 49.6----
2024-07-13 05:18 amNNE 6.0 9.9----30.00-- 50.0----
2024-07-13 05:12 amNNE 8.9 12.0----30.00-- 51.1----
2024-07-13 05:06 am N 5.1 9.9----30.00-- 51.6----
2024-07-13 05:00 am N 7.0 11.1----30.00-0.01- 52.0----
2024-07-13 04:54 am N 6.0 9.9----30.00-- 52.2----
2024-07-13 04:48 am N 5.1 8.9----30.00-- 52.2----
2024-07-13 04:42 am N 5.1 8.0----30.00-- 52.3----
2024-07-13 04:36 am N 5.1 8.0----30.00-- 52.5----
2024-07-13 04:30 amNNW 2.9 6.0----30.00-- 52.5----
2024-07-13 04:24 amNNW 4.1 5.1----30.00-- 52.5----
2024-07-13 04:18 amNNW 2.9 7.0----30.00-- 52.5----
2024-07-13 04:12 am N 2.9 6.0----30.00-- 52.5----
2024-07-13 04:06 amNNE 2.9 5.1----30.00-- 52.7----
2024-07-13 04:00 amNNE 2.9 5.1----30.00-0.01- 52.7----
2024-07-13 03:54 amNNE 2.9 6.0----30.00-- 52.5----
2024-07-13 03:48 am NE 4.1 7.0----30.00-- 52.5----
2024-07-13 03:42 am NE 4.1 8.0----30.00-- 52.5----
2024-07-13 03:36 am NE 5.1 8.9----30.01-- 52.5----
2024-07-13 03:30 amNNE 5.1 8.0----30.00-- 52.7----
2024-07-13 03:24 am NE 5.1 8.9----30.00-- 52.9----
2024-07-13 03:18 amNNE 4.1 7.0----30.00-- 52.9----
2024-07-13 03:12 amNNE 5.1 8.9----30.00-- 53.1----
2024-07-13 03:06 amNNE 5.1 8.0----30.00-- 52.9----
2024-07-13 03:00 amNNE 5.1 7.0----30.00-0.01- 52.9----
2024-07-13 02:54 am N 4.1 8.9----30.00-- 53.1----
2024-07-13 02:48 am N 5.1 7.0----30.01-- 53.2----
2024-07-13 02:42 am N 5.1 8.9----30.01-- 53.4----
2024-07-13 02:36 am-------30.00-- 53.8----
2024-07-13 02:30 am-------30.00-- 54.1----
2024-07-13 02:24 am-------30.01-- 55.2----
2024-07-13 02:18 am-------30.01-- 55.4----
2024-07-13 02:12 am-------30.01-- 55.6----
2024-07-13 02:06 am-------30.01-- 55.4----
2024-07-13 02:00 am-------30.01-0.01- 55.4----
2024-07-13 01:54 am-------30.01-- 55.2----
2024-07-13 01:48 am-------30.01-- 55.4----
2024-07-13 01:42 am-------30.01-- 55.8----
2024-07-13 01:36 amNNW 4.1 6.0----30.01-- 55.9----
2024-07-13 01:30 am N 4.1 6.0----30.01-- 56.3----
2024-07-13 01:24 amNNW 5.1 6.0----30.01-- 56.5----
2024-07-13 01:18 am N 1.0 5.1----30.01-- 56.3----
2024-07-13 01:12 amNNW 1.9 5.1----30.01-- 56.3----
2024-07-13 01:06 amNNE 2.9 6.0----30.01-- 56.3----
2024-07-13 01:00 am NE 4.1 6.0----30.01+0.00- 56.3----
2024-07-13 12:54 am N 2.9 6.0----30.01-- 56.3----
2024-07-13 12:48 am N 5.1 8.9----30.01-- 56.1----
2024-07-13 12:42 am N 4.1 7.0----30.02-- 55.9----
2024-07-13 12:36 am N 1.9 7.0----30.02-- 55.8----
2024-07-13 12:30 am N 2.9 6.0----30.01-- 55.4----
2024-07-13 12:24 am N 4.1 7.0----30.01-- 55.2----
2024-07-13 12:18 am N 2.9 5.1----30.01-- 55.0----
2024-07-13 12:12 am N 4.1 7.0----30.02-- 55.0----
2024-07-13 12:06 am N 4.1 7.0----30.02-- 54.9----
2024-07-13 12:00 am N 5.1 8.9----30.02+0.00- 54.9----
2024-07-12 11:54 pm N 4.1 7.0----30.02-- 54.9----
2024-07-12 11:48 pm N 4.1 8.0----30.02-- 54.7----
2024-07-12 11:42 pm N 4.1 7.0----30.02-- 54.5----
2024-07-12 11:36 pm N 4.1 8.0----30.02-- 54.3----
2024-07-12 11:30 pm N 2.9 7.0----30.02-- 54.0----
2024-07-12 11:24 pm N 2.9 6.0----30.02-- 53.8----
2024-07-12 11:18 pm N 2.9 6.0----30.02-- 53.2----
2024-07-12 11:12 pm N 2.9 5.1----30.02-- 52.9----
2024-07-12 11:06 pm N 2.9 6.0----30.02-- 52.7----
2024-07-12 11:00 pm N 1.9 5.1----30.02+0.00- 52.3----
2024-07-12 10:54 pm N 2.9 5.1----30.02-- 52.5----
2024-07-12 10:48 pm N 1.9 5.1----30.02-- 52.7----
2024-07-12 10:42 pmNNE 1.9 5.1----30.02-- 52.0----
2024-07-12 10:36 pmNNE 2.9 6.0----30.02-- 52.0----
2024-07-12 10:30 pm NE 1.9 5.1----30.02-- 51.8----
2024-07-12 10:24 pm NE 2.9 5.1----30.02-- 51.4----
2024-07-12 10:18 pmENE 1.0 4.1----30.02-- 51.3----
2024-07-12 10:12 pm NE 1.9 6.0----30.02-- 50.5----
2024-07-12 10:06 pm NE 4.1 6.0----30.02-- 50.2----
2024-07-12 10:00 pm NE 1.9 4.1----30.02+0.01- 50.2----
2024-07-12 09:54 pm NE 4.1 6.0----30.02-- 50.4----
2024-07-12 09:48 pmNNE 4.1 8.9----30.02-- 49.8----
2024-07-12 09:42 pmNNE 6.0 7.0----30.02-- 49.5----
2024-07-12 09:36 pmNNE 4.1 7.0----30.02-- 49.3----
2024-07-12 09:30 pmNNE 6.0 8.0----30.02-- 49.3----
2024-07-12 09:24 pmNNE 7.0 9.9----30.01-- 49.1----
2024-07-12 09:18 pmNNE 8.0 9.9----30.01-- 49.1----
2024-07-12 09:12 pm NE 8.9 12.0----30.01-- 49.1----
2024-07-12 09:06 pm NE 8.0 11.1----30.01-- 49.1----
2024-07-12 09:00 pm NE 7.0 9.9----30.01+0.00- 48.9----
2024-07-12 08:54 pm NE 5.1 8.9----30.01-- 48.9----
2024-07-12 08:48 pmNNE 5.1 9.9----30.01-- 48.9----
2024-07-12 08:42 pm NE 5.1 8.0----30.01-- 48.9----
2024-07-12 08:36 pmNNE 5.1 9.9----30.01-- 48.7----
2024-07-12 08:30 pmNNE 8.0 9.9----30.01-- 48.9----
2024-07-12 08:24 pm NE 4.1 8.9----30.01-- 48.7----
2024-07-12 08:18 pm NE 4.1 6.0----30.01-- 48.7----
2024-07-12 08:12 pmNNE 5.1 8.0----30.01-- 48.7----
2024-07-12 08:06 pm N 2.9 8.0----30.01-- 48.6----
2024-07-12 08:00 pmNNE 4.1 6.0----30.01+0.00- 48.4----
2024-07-12 07:54 pm N 2.9 6.0----30.01-- 48.4----
2024-07-12 07:48 pmNNE 1.9 7.0----30.01-- 48.4----
2024-07-12 07:42 pmNNE 5.1 8.0----30.01-- 48.2----
2024-07-12 07:36 pmNNE 5.1 8.0----30.01-- 48.2----
2024-07-12 07:30 pmNNE 5.1 8.0----30.01-- 48.2----
2024-07-12 07:24 pmNNE 5.1 8.0----30.01-- 48.2----
2024-07-12 07:18 pm NE 4.1 7.0----30.01-- 48.7----
2024-07-12 07:12 pm N 2.9 6.0----30.01-- 48.7----
2024-07-12 07:06 pmNNE 1.9 7.0----30.01-- 48.7----
2024-07-12 07:00 pmNNE 2.9 7.0----30.01-0.02- 48.7----
2024-07-12 06:54 pm N 6.0 8.0----30.01-- 48.6----
2024-07-12 06:48 pm N 2.9 5.1----30.01-- 48.4----
2024-07-12 06:42 pm N 4.1 8.0----30.01-- 48.4----
2024-07-12 06:36 pm N 4.1 9.9----30.01-- 48.2----
2024-07-12 06:30 pm N 4.1 8.9----30.01-- 48.0----
2024-07-12 06:24 pm N 6.0 9.9----30.01-- 47.8----
2024-07-12 06:18 pm N 5.1 8.0----30.01-- 47.8----
2024-07-12 06:12 pm N 6.0 8.9----30.01-- 47.8----
2024-07-12 06:06 pm N 6.0 8.9----30.01-- 47.7----
2024-07-12 06:00 pm N 4.1 8.9----30.01-0.03- 47.7----
2024-07-12 05:54 pmNNE 5.1 8.9----30.01-- 47.7----
2024-07-12 05:48 pmNNE 6.0 8.9----30.01-- 47.7----
2024-07-12 05:42 pmNNE 7.0 11.1----30.01-- 47.8----
2024-07-12 05:36 pm N 6.0 8.9----30.01-- 47.8----
2024-07-12 05:30 pm N 6.0 8.9----30.01-- 48.0----
2024-07-12 05:24 pmNNE 4.1 8.0----30.01-- 48.0----
2024-07-12 05:18 pm N 1.9 8.9----30.01-- 48.0----
2024-07-12 05:12 pm N 4.1 11.1----30.01-- 48.0----
2024-07-12 05:06 pmNNE 7.0 9.9----30.01-- 48.2----
2024-07-12 05:00 pm N 2.9 9.9----30.02-0.03- 48.2----
2024-07-12 04:54 pmNNE 4.1 8.9----30.02-- 48.4----
2024-07-12 04:48 pmNNE 5.1 8.9----30.02-- 48.6----
2024-07-12 04:42 pm N 6.0 9.9----30.02-- 48.6----
2024-07-12 04:36 pm N 4.1 7.0----30.02-- 48.7----
2024-07-12 04:30 pm N 4.1 7.0----30.02-- 48.7----
2024-07-12 04:24 pm N 2.9 9.9----30.02-- 48.7----
2024-07-12 04:18 pm N 4.1 8.9----30.03-- 48.9----
2024-07-12 04:12 pm N 4.1 8.9----30.03-- 49.1----
2024-07-12 04:06 pm N 4.1 6.0----30.03-- 49.1----
2024-07-12 04:00 pm N 5.1 9.9----30.03-0.02- 49.3----
2024-07-12 03:54 pmNNE 5.1 8.0----30.03-- 49.6----